Total_Precipitation_Accumulation
0.24 0.45 1.05 1.72 2.85 3.16 2.44 1.54 1.08 0.94 0.95 0.92 0.84 0.89 0.99 1.26 1.82 2.95 2.98 2.53 1.96 2.03 2.61 2.87 3.21 3.11 2.96 2.88 2.96 3.13 3.11 2.82 2.63 2.62 2.62 2.63 2.67 2.57 2.59 2.66 2.69 2.72 2.68 2.77 2.96 2.92 2.98 3.01 3.03
0.43 0.82 1.53 2.57 3.34 2.78 2.23 1.43 0.88 0.77 0.78 0.90 0.91 0.83 0.76 0.87 1.05 1.65 2.38 2.44 1.67 1.60 2.03 2.18 2.63 2.73 2.75 2.63 2.67 2.83 2.78 2.58 2.46 2.32 2.45 2.57 2.61 2.63 2.65 2.71 2.79 2.83 2.78 2.85 2.96 2.95 3.00 3.01 3.04
0.66 1.05 1.81 2.85 2.46 2.01 1.88 1.30 0.80 0.58 0.70 0.96 0.98 0.73 0.85 1.21 1.29 1.73 2.08 1.90 1.55 1.53 1.72 2.07 2.44 2.48 2.47 2.36 2.37 2.47 2.38 2.30 2.29 2.27 2.38 2.52 2.65 2.71 2.73 2.73 2.86 3.09 3.15 3.13 3.09 3.17 3.20 3.08 2.95
0.92 1.35 1.99 2.25 1.56 1.11 1.10 1.02 0.79 0.71 0.85 0.95 0.86 0.80 1.01 1.40 1.41 1.54 1.52 1.44 1.32 1.59 1.77 2.12 2.51 2.41 2.34 2.25 2.18 2.17 2.18 2.18 2.19 2.27 2.47 2.58 2.66 2.69 2.72 2.77 2.93 3.23 3.26 3.06 3.11 3.24 3.21 3.22 3.15
1.16 1.80 2.47 1.94 1.33 0.91 0.73 0.71 0.71 0.83 0.91 0.99 0.87 0.95 1.40 1.57 1.25 1.17 1.13 1.31 1.41 1.72 2.01 2.30 2.57 2.56 2.53 2.36 2.19 2.09 2.00 2.06 2.12 2.19 2.39 2.49 2.53 2.50 2.57 2.71 2.73 2.74 2.87 3.01 3.12 3.11 3.06 3.16 3.16
1.51 1.91 2.10 1.54 1.04 0.72 0.58 0.59 0.73 0.88 0.84 0.88 0.98 1.17 1.83 1.78 1.34 1.19 1.18 1.38 1.58 1.77 2.09 2.53 2.77 2.88 2.83 2.56 2.28 2.16 2.06 1.99 1.99 2.05 2.10 2.24 2.35 2.44 2.67 2.75 2.54 2.39 2.54 2.87 3.09 3.09 3.12 3.14 3.13
1.62 1.93 1.79 1.19 0.88 0.70 0.63 0.58 0.63 0.80 0.87 1.03 1.04 1.22 1.86 2.04 1.53 1.22 1.36 1.74 1.95 2.02 2.07 2.49 2.81 2.95 3.03 2.80 2.43 2.30 2.13 1.98 1.92 1.87 1.94 2.03 2.19 2.29 2.53 2.73 2.61 2.40 2.42 2.75 3.07 3.14 3.34 3.19 2.96
1.10 1.37 1.42 1.02 0.79 0.66 0.53 0.52 0.62 0.81 0.89 0.91 1.01 1.27 1.62 1.70 1.43 1.37 1.67 2.23 2.56 2.53 2.34 2.18 2.31 2.74 2.98 2.77 2.61 2.55 2.22 1.91 1.89 1.92 2.10 2.31 2.47 2.55 2.66 2.67 2.85 2.58 2.48 2.72 3.08 3.18 3.22 3.11 3.08
0.77 1.14 1.29 0.92 0.64 0.53 0.48 0.51 0.55 0.62 0.70 0.92 1.13 1.35 1.35 1.17 1.19 1.46 1.87 2.37 2.74 2.60 2.48 2.20 2.11 2.34 2.54 2.38 2.26 2.48 2.23 2.03 2.20 2.46 2.62 2.75 2.81 2.60 2.77 2.77 3.24 3.11 3.00 3.16 3.36 3.47 3.57 3.59 3.60
0.68 0.98 0.83 0.52 0.41 0.43 0.42 0.44 0.45 0.68 0.99 1.41 1.65 1.54 1.32 1.18 1.31 1.62 1.94 2.13 2.26 2.31 2.28 2.34 2.15 2.18 2.23 2.06 2.33 2.84 2.51 2.49 2.78 2.94 2.83 3.39 3.58 3.34 2.72 2.89 3.54 3.72 3.76 3.81 3.84 4.07 4.00 3.85 3.80
0.50 0.56 0.42 0.31 0.25 0.32 0.37 0.37 0.43 0.68 1.27 1.71 1.89 1.57 1.36 1.38 1.52 1.67 2.08 2.28 2.40 2.40 2.28 2.38 2.27 2.27 2.44 2.64 2.64 2.92 3.03 3.20 3.34 3.34 3.37 3.76 3.57 3.19 2.90 3.16 3.64 3.78 3.78 3.81 3.94 4.22 3.89 3.80 3.96
0.25 0.21 0.21 0.20 0.20 0.23 0.26 0.32 0.51 0.77 1.21 1.47 1.38 1.21 1.19 1.48 1.70 1.91 2.26 2.62 2.74 2.86 2.80 2.58 2.47 2.71 2.91 2.88 2.80 2.70 2.54 2.63 2.88 3.02 2.97 3.51 3.99 3.86 3.71 3.84 3.78 3.98 4.15 4.44 4.13 4.15 4.13 4.11 3.96
0.21 0.18 0.17 0.17 0.18 0.22 0.23 0.32 0.51 0.83 1.03 1.07 0.94 0.99 1.26 1.61 1.88 2.38 2.87 2.95 2.94 3.23 3.41 3.24 3.13 3.13 3.03 3.16 2.81 2.48 2.46 2.31 2.28 2.68 2.98 3.22 3.65 3.85 3.91 3.73 3.72 3.54 3.70 3.84 3.85 3.59 3.88 4.15 4.14
0.15 0.14 0.17 0.20 0.20 0.22 0.28 0.37 0.49 0.74 0.83 0.83 0.90 1.14 1.36 1.78 2.10 2.66 3.17 3.24 3.35 3.66 3.89 3.83 3.82 3.64 3.36 3.13 3.04 2.91 2.71 2.63 2.31 2.57 2.73 3.01 3.38 3.56 3.46 3.54 3.68 3.48 3.52 3.53 3.56 3.59 4.03 4.33 4.37
0.14 0.18 0.26 0.25 0.23 0.23 0.34 0.64 0.65 0.79 0.89 0.88 1.08 1.21 1.58 2.04 2.32 2.65 2.89 3.29 3.75 4.20 4.30 4.26 4.24 4.21 4.19 3.86 3.47 3.11 3.07 2.82 2.75 2.76 2.69 2.91 3.24 3.51 3.45 3.42 3.27 3.27 3.36 3.56 3.61 3.74 4.03 4.00 4.08
0.24 0.42 0.57 0.42 0.32 0.28 0.43 1.03 1.07 0.96 0.91 1.01 1.20 1.46 1.71 1.99 2.39 2.63 2.95 3.32 3.76 4.34 4.77 4.87 4.33 4.39 4.49 4.44 4.14 3.65 3.58 3.44 3.28 2.97 2.83 2.81 3.10 3.23 3.29 3.12 3.01 3.06 2.95 3.14 3.46 3.51 3.63 3.87 4.08
0.30 0.45 0.54 0.53 0.36 0.32 0.49 1.10 1.38 1.10 0.91 1.06 1.36 1.61 1.91 2.13 2.55 2.68 2.87 3.16 3.66 4.62 5.58 5.61 5.12 4.72 4.48 4.48 4.56 4.40 4.21 3.90 3.44 3.23 3.14 2.97 2.84 2.65 2.78 2.86 2.95 2.79 2.76 2.89 2.78 3.36 3.58 3.74 3.93
0.24 0.29 0.44 0.60 0.42 0.38 0.54 1.01 1.07 1.05 1.15 1.13 1.22 1.40 1.66 1.77 2.08 2.35 2.66 3.22 4.05 5.31 6.14 6.05 5.45 5.07 4.80 4.63 4.51 4.51 4.27 3.99 3.53 3.35 3.21 2.93 2.92 2.56 2.64 2.63 2.73 2.63 2.81 3.06 3.28 3.63 3.58 3.46 3.60
0.18 0.24 0.37 0.44 0.36 0.45 0.60 0.91 1.02 1.14 1.33 1.30 1.20 1.22 1.45 1.63 1.91 2.37 2.93 3.78 4.88 5.86 6.17 5.70 5.25 5.00 4.65 4.30 3.73 3.45 3.58 3.52 3.29 2.93 2.57 2.52 2.43 2.52 2.84 2.59 2.82 2.66 2.82 2.96 3.07 3.28 3.32 3.19 3.30
0.18 0.24 0.35 0.41 0.32 0.37 0.63 1.00 1.29 1.25 1.20 1.17 1.26 1.29 1.36 1.70 2.13 2.83 3.85 4.42 4.71 4.88 4.64 4.34 4.17 4.03 3.55 3.31 3.26 3.10 3.16 2.90 2.75 2.64 2.74 2.33 2.18 2.28 2.30 2.70 2.69 2.72 3.00 2.99 2.99 3.21 3.16 3.02 3.12
0.20 0.24 0.32 0.39 0.30 0.37 0.67 1.27 1.56 1.46 1.19 1.05 1.17 1.21 1.35 1.73 2.32 3.13 3.72 3.85 3.60 3.27 3.14 3.12 3.26 3.08 2.99 3.09 3.06 3.01 3.11 2.80 2.62 2.60 2.73 2.32 2.00 1.99 2.12 2.30 2.53 2.78 2.68 2.89 3.00 2.91 3.07 3.15 3.08
0.22 0.17 0.16 0.20 0.31 0.57 0.81 1.55 1.72 1.50 1.39 1.16 1.20 1.21 1.22 1.46 1.86 2.30 2.58 2.46 2.56 2.68 2.70 2.84 2.97 2.77 2.82 2.87 2.66 2.59 2.54 2.43 2.42 2.48 2.58 2.59 2.13 1.94 1.95 2.06 2.29 2.53 2.43 2.75 2.53 2.74 3.15 3.20 2.97
0.13 0.11 0.15 0.22 0.38 0.61 0.85 1.27 1.50 1.29 1.47 1.20 1.06 1.03 0.96 1.15 1.33 1.47 1.57 1.68 1.87 2.00 2.17 2.45 2.75 2.77 2.67 2.56 2.55 2.60 2.44 2.45 2.44 2.46 2.56 2.66 2.43 2.13 1.89 2.00 2.24 2.38 2.35 2.44 2.51 2.92 2.96 2.94 2.93
0.10 0.14 0.26 0.38 0.58 1.11 1.09 1.15 1.42 1.42 1.43 1.22 1.04 0.87 0.88 1.02 1.19 1.29 1.29 1.39 1.57 1.71 1.93 2.19 2.58 2.74 2.71 2.55 2.48 2.50 2.56 2.57 2.51 2.55 2.54 2.36 2.33 2.28 2.07 2.07 2.26 2.25 2.27 2.33 2.42 2.71 2.72 2.90 3.06
0.13 0.20 0.49 0.84 1.22 1.39 0.91 1.00 1.32 1.22 1.06 0.94 0.73 0.67 0.76 0.94 1.11 1.29 1.31 1.29 1.36 1.51 1.64 1.75 2.04 2.36 2.52 2.48 2.46 2.45 2.63 2.55 2.33 2.25 2.23 2.20 1.98 1.93 2.00 2.08 2.27 2.17 2.17 2.27 2.57 2.71 2.68 2.85 2.91
0.11 0.14 0.32 0.50 0.59 0.73 0.91 1.32 1.43 1.18 0.80 0.55 0.53 0.65 0.82 0.95 1.03 1.15 1.21 1.17 1.24 1.30 1.46 1.62 1.95 2.14 2.32 2.37 2.38 2.40 2.47 2.36 2.19 2.23 2.04 2.03 1.94 1.85 1.93 2.03 2.03 2.03 2.11 2.16 2.62 2.50 2.57 2.75 2.67
0.12 0.13 0.14 0.23 0.27 0.53 0.97 1.26 1.20 1.02 0.79 0.64 0.60 0.68 0.89 0.91 0.86 0.97 1.02 1.18 1.26 1.24 1.38 1.53 1.82 2.19 2.41 2.53 2.60 2.55 2.52 2.49 2.43 2.36 2.13 1.93 2.06 1.94 2.03 2.10 2.09 2.11 2.30 2.46 2.70 2.52 2.56 2.73 2.53
0.11 0.14 0.18 0.21 0.31 0.48 0.80 1.24 1.44 1.25 0.99 0.84 0.77 0.76 0.83 0.84 0.86 1.06 1.25 1.35 1.24 1.12 1.22 1.36 1.66 2.15 2.44 2.63 2.60 2.45 2.64 2.53 2.49 2.40 2.19 2.01 2.01 2.06 2.20 2.34 2.31 2.37 2.40 2.51 2.66 2.45 2.57 2.63 2.51
0.11 0.13 0.18 0.21 0.22 0.34 0.65 0.91 0.88 0.88 0.82 0.78 0.84 0.81 0.68 0.73 0.88 1.12 1.41 1.46 1.27 1.10 1.06 1.22 1.59 1.93 2.20 2.40 2.49 2.35 2.30 2.24 2.25 2.26 2.19 2.14 2.15 2.13 2.16 2.28 2.34 2.30 2.34 2.46 2.59 2.37 2.46 2.47 2.51
0.13 0.15 0.19 0.24 0.23 0.22 0.38 0.66 0.51 0.60 0.66 0.76 0.89 0.95 0.90 0.92 0.98 1.04 1.21 1.37 1.29 1.21 1.17 1.36 1.66 1.84 1.97 2.09 2.14 2.12 2.12 2.11 2.05 1.99 2.06 2.14 2.06 1.97 2.04 2.11 2.13 2.06 2.19 2.40 2.40 2.27 2.36 2.44 2.42